Radiation Dose at Monitoring Post of Fukushima Daini Nuclear Power Station
Date,Time,MP-1(microSv/h),MP-2(microSv/h),MP-3(microSv/h),MP-4(microSv/h),MP-5(microSv/h),MP-6(microSv/h),MP-7(microSv/h),Wind Direction,Wind Velocity(m/s),Rain
2016/08/10,00:00,0.426,0.247,0.435,0.394,0.372,0.204,0.172,west-northwest,4.8,No
2016/08/10,00:10,0.422,0.249,0.434,0.398,0.368,0.203,0.173,northwest,3.9,No
2016/08/10,00:20,0.421,0.249,0.439,0.400,0.369,0.203,0.172,west-northwest,5.0,No
2016/08/10,00:30,0.425,0.249,0.440,0.396,0.374,0.204,0.171,north-northwest,4.2,No
2016/08/10,00:40,0.426,0.246,0.437,0.394,0.371,0.204,0.174,north-northwest,2.5,No
2016/08/10,00:50,0.424,0.248,0.435,0.397,0.369,0.203,0.173,north-northwest,2.3,No
2016/08/10,01:00,0.420,0.248,0.437,0.398,0.371,0.204,0.172,north-northwest,3.1,No
2016/08/10,01:10,0.424,0.247,0.441,0.393,0.373,0.204,0.175,north-northwest,2.3,No
2016/08/10,01:20,0.426,0.248,0.436,0.396,0.371,0.203,0.171,north-northwest,2.6,No
2016/08/10,01:30,0.424,0.249,0.434,0.399,0.368,0.203,0.173,north,3.4,No
2016/08/10,01:40,0.421,0.248,0.441,0.394,0.371,0.203,0.174,north,3.8,No
2016/08/10,01:50,0.426,0.248,0.438,0.396,0.372,0.204,0.172,north,3.5,No
2016/08/10,02:00,0.425,0.250,0.435,0.399,0.370,0.204,0.174,north-northeast,4.2,No
2016/08/10,02:10,0.422,0.248,0.439,0.397,0.369,0.203,0.174,north-northeast,3.3,No
2016/08/10,02:20,0.426,0.248,0.438,0.395,0.373,0.204,0.173,north-northeast,3.9,No
2016/08/10,02:30,0.426,0.249,0.438,0.399,0.371,0.204,0.172,north,3.3,No
2016/08/10,02:40,0.424,0.247,0.435,0.398,0.368,0.203,0.174,north,3.9,No
2016/08/10,02:50,0.424,0.248,0.440,0.394,0.373,0.204,0.172,north,4.8,No
2016/08/10,03:00,0.426,0.248,0.438,0.398,0.372,0.204,0.174,north,4.6,No
2016/08/10,03:10,0.424,0.248,0.435,0.398,0.369,0.203,0.173,north-northeast,3.9,No
2016/08/10,03:20,0.422,0.250,0.441,0.393,0.373,0.205,0.172,north-northeast,3.9,No
2016/08/10,03:30,0.427,0.250,0.438,0.398,0.373,0.204,0.174,north-northeast,3.6,No
2016/08/10,03:40,0.423,0.248,0.436,0.397,0.369,0.203,0.173,north-northeast,4.2,No
2016/08/10,03:50,0.424,0.248,0.442,0.395,0.372,0.205,0.173,north-northeast,3.5,No
2016/08/10,04:00,0.425,0.249,0.436,0.400,0.372,0.204,0.175,north-northeast,3.7,No
2016/08/10,04:10,0.425,0.247,0.435,0.397,0.370,0.204,0.173,northeast,3.5,No
2016/08/10,04:20,0.425,0.251,0.440,0.395,0.374,0.204,0.173,north-northeast,3.2,No
2016/08/10,04:30,0.427,0.248,0.437,0.399,0.371,0.204,0.174,north-northeast,3.5,No
2016/08/10,04:40,0.423,0.247,0.436,0.397,0.369,0.205,0.172,north-northeast,2.8,No
2016/08/10,04:50,0.426,0.250,0.442,0.395,0.373,0.203,0.175,north-northeast,2.8,No
2016/08/10,05:00,0.427,0.248,0.435,0.401,0.372,0.205,0.173,north-northeast,3.1,No
2016/08/10,05:10,0.424,0.249,0.436,0.396,0.370,0.204,0.173,north-northeast,2.8,No
2016/08/10,05:20,0.426,0.249,0.442,0.397,0.374,0.204,0.174,north-northeast,3.2,No
2016/08/10,05:30,0.427,0.248,0.436,0.397,0.370,0.203,0.173,north-northeast,1.9,No
2016/08/10,05:40,0.423,0.249,0.438,0.396,0.369,0.204,0.173,north-northeast,1.7,No
2016/08/10,05:50,0.425,0.249,0.439,0.397,0.371,0.204,0.175,north,2.1,No
2016/08/10,06:00,0.425,0.247,0.437,0.397,0.372,0.205,0.173,north,1.3,No
2016/08/10,06:10,0.423,0.248,0.437,0.394,0.369,0.203,0.172,north-northeast,2.1,No
2016/08/10,06:20,0.424,0.249,0.441,0.395,0.369,0.205,0.171,northeast,2.3,No
2016/08/10,06:30,0.427,0.247,0.437,0.399,0.374,0.205,0.171,east-northeast,1.8,No
2016/08/10,06:40,0.424,0.247,0.434,0.395,0.372,0.202,0.172,southeast,0.8,No
2016/08/10,06:50,0.421,0.248,0.439,0.393,0.369,0.204,0.173,east-northeast,1.5,No
2016/08/10,07:00,0.425,0.250,0.439,0.397,0.367,0.204,0.174,-,CALM,No
2016/08/10,07:10,0.428,0.248,0.435,0.398,0.370,0.204,0.174,east,1.3,No
2016/08/10,07:20,0.424,0.247,0.434,0.397,0.374,0.203,0.173,east,1.7,No
2016/08/10,07:30,0.422,0.247,0.434,0.395,0.373,0.205,0.174,east,2.0,No
2016/08/10,07:40,0.421,0.247,0.434,0.394,0.370,0.205,0.173,southeast,2.2,No
2016/08/10,07:50,0.419,0.247,0.435,0.395,0.370,0.205,0.173,east-southeast,1.6,No
2016/08/10,08:00,0.425,0.248,0.433,0.394,0.367,0.204,0.172,east,1.7,No
2016/08/10,08:10,0.427,0.247,0.434,0.395,0.368,0.203,0.173,east,1.3,No
2016/08/10,08:20,0.428,0.249,0.440,0.393,0.368,0.205,0.174,east,1.6,No
2016/08/10,08:30,0.423,0.248,0.442,0.394,0.368,0.203,0.173,southeast,1.1,No
2016/08/10,08:40,0.424,0.249,0.438,0.395,0.370,0.204,0.172,east-southeast,1.6,No
2016/08/10,08:50,0.421,0.248,0.437,0.396,0.369,0.204,0.173,southeast,1.5,No
2016/08/10,09:00,0.421,0.248,0.436,0.394,0.369,0.204,0.173,east-southeast,1.6,No
2016/08/10,09:10,0.421,0.247,0.436,0.395,0.369,0.204,0.174,southeast,1.7,No
2016/08/10,09:20,0.420,0.247,0.433,0.395,0.369,0.205,0.174,east-southeast,1.3,No
2016/08/10,09:30,0.421,0.247,0.435,0.395,0.367,0.204,0.174,east-southeast,1.5,No
2016/08/10,09:40,0.420,0.248,0.436,0.394,0.369,0.205,0.174,east-southeast,1.3,No
2016/08/10,09:50,0.421,0.248,0.437,0.395,0.372,0.206,0.174,southeast,1.6,No
2016/08/10,10:00,0.421,0.248,0.443,0.395,0.371,0.204,0.173,south-southeast,2.2,No
2016/08/10,10:10,0.423,0.247,0.442,0.397,0.371,0.205,0.174,east-southeast,2.6,No
2016/08/10,10:20,0.424,0.248,0.440,0.397,0.372,0.205,0.173,east-southeast,2.6,No
2016/08/10,10:30,0.423,0.248,0.437,0.396,0.371,0.204,0.174,east-southeast,2.2,No
2016/08/10,10:40,0.425,0.248,0.438,0.396,0.373,0.205,0.174,east,2.7,No
2016/08/10,10:50,0.424,0.248,0.438,0.397,0.373,0.206,0.175,east,1.9,No
2016/08/10,11:00,0.421,0.248,0.439,0.398,0.373,0.206,0.175,east-southeast,1.9,No
2016/08/10,11:10,0.424,0.248,0.439,0.398,0.372,0.205,0.175,southeast,2.1,No
2016/08/10,11:20,0.423,0.246,0.439,0.399,0.372,0.205,0.175,east-southeast,2.2,No
2016/08/10,11:30,0.424,0.247,0.438,0.399,0.372,0.205,0.176,east,1.7,No
2016/08/10,11:40,0.423,0.248,0.437,0.398,0.373,0.206,0.175,east,2.2,No
2016/08/10,11:50,0.424,0.246,0.437,0.399,0.372,0.205,0.174,east-southeast,3.1,No
2016/08/10,12:00,0.424,0.248,0.438,0.399,0.373,0.206,0.175,east,1.6,No
2016/08/10,12:10,0.423,0.248,0.438,0.399,0.374,0.204,0.175,east-southeast,1.9,No
2016/08/10,12:20,0.423,0.249,0.437,0.398,0.372,0.206,0.174,east,2.2,No
2016/08/10,12:30,0.424,0.249,0.437,0.396,0.372,0.207,0.175,east-northeast,1.3,No
2016/08/10,12:40,0.423,0.249,0.438,0.395,0.373,0.205,0.174,east,1.8,No
2016/08/10,12:50,0.425,0.247,0.436,0.397,0.372,0.205,0.174,east,1.8,No
2016/08/10,13:00,0.424,0.249,0.438,0.398,0.372,0.206,0.174,east,2.1,No
2016/08/10,13:10,0.424,0.248,0.440,0.398,0.373,0.206,0.175,east-southeast,2.0,No
2016/08/10,13:20,0.423,0.249,0.439,0.399,0.371,0.206,0.174,southeast,1.9,No
2016/08/10,13:30,0.424,0.250,0.441,0.398,0.374,0.204,0.174,east,2.5,No
2016/08/10,13:40,0.423,0.251,0.438,0.398,0.370,0.205,0.173,east-southeast,1.9,No
2016/08/10,13:50,0.425,0.250,0.438,0.399,0.373,0.206,0.174,east-southeast,1.5,No
2016/08/10,14:00,0.424,0.250,0.438,0.397,0.372,0.205,0.175,east-southeast,1.4,No
2016/08/10,14:10,0.423,0.249,0.437,0.397,0.370,0.204,0.173,east,2.1,No
2016/08/10,14:20,0.425,0.249,0.437,0.395,0.371,0.205,0.174,southeast,1.4,No
2016/08/10,14:30,0.422,0.249,0.438,0.396,0.371,0.205,0.174,east-southeast,1.0,No
2016/08/10,14:40,0.422,0.249,0.436,0.395,0.373,0.205,0.175,east-southeast,1.0,No
2016/08/10,14:50,0.426,0.247,0.437,0.397,0.369,0.205,0.173,east,1.6,No
2016/08/10,15:00,0.429,0.247,0.435,0.395,0.370,0.206,0.174,southeast,1.0,No
2016/08/10,15:10,0.430,0.248,0.438,0.397,0.370,0.206,0.174,southeast,0.9,No
2016/08/10,15:20,0.425,0.248,0.437,0.396,0.369,0.204,0.173,southeast,1.3,No
2016/08/10,15:30,0.426,0.250,0.438,0.399,0.370,0.205,0.174,east-southeast,1.5,No
2016/08/10,15:40,0.423,0.248,0.437,0.404,0.370,0.205,0.173,south-southeast,1.3,No
2016/08/10,15:50,0.423,0.249,0.437,0.403,0.372,0.207,0.174,south-southeast,1.0,No
2016/08/10,16:00,0.424,0.247,0.438,0.400,0.371,0.206,0.171,southeast,1.3,No
2016/08/10,16:10,0.422,0.249,0.438,0.398,0.370,0.205,0.174,south-southeast,1.0,No
2016/08/10,16:20,0.427,0.249,0.445,0.396,0.368,0.206,0.173,southeast,1.0,No
2016/08/10,16:30,0.429,0.252,0.442,0.398,0.370,0.205,0.175,southeast,0.9,No
2016/08/10,16:40,0.428,0.250,0.440,0.403,0.369,0.204,0.174,south-southeast,1.4,No
2016/08/10,16:50,0.424,0.250,0.438,0.402,0.370,0.207,0.174,south-southeast,0.6,No
2016/08/10,17:00,0.424,0.249,0.437,0.400,0.370,0.206,0.173,south-southeast,0.7,No
2016/08/10,17:10,0.424,0.247,0.440,0.397,0.373,0.206,0.172,east,0.7,No
2016/08/10,17:20,0.430,0.250,0.444,0.398,0.375,0.205,0.173,-,CALM,No
2016/08/10,17:30,0.428,0.251,0.440,0.402,0.373,0.205,0.176,-,CALM,No
2016/08/10,17:40,0.425,0.248,0.438,0.402,0.371,0.207,0.176,north,0.7,No
2016/08/10,17:50,0.422,0.248,0.438,0.398,0.369,0.206,0.174,-,CALM,No
2016/08/10,18:00,0.428,0.251,0.444,0.396,0.373,0.205,0.173,-,CALM,No
2016/08/10,18:10,0.430,0.250,0.442,0.403,0.376,0.206,0.175,-,CALM,No
2016/08/10,18:20,0.425,0.249,0.437,0.402,0.373,0.205,0.175,southwest,1.3,No
2016/08/10,18:30,0.423,0.250,0.439,0.399,0.369,0.207,0.173,west-southwest,1.1,No
2016/08/10,18:40,0.428,0.251,0.447,0.398,0.372,0.205,0.174,west-southwest,1.0,No
2016/08/10,18:50,0.428,0.250,0.441,0.402,0.375,0.206,0.176,southwest,1.6,No
2016/08/10,19:00,0.425,0.249,0.438,0.400,0.373,0.205,0.175,south-southwest,1.0,No
2016/08/10,19:10,0.426,0.252,0.442,0.397,0.370,0.204,0.174,southwest,0.8,No
2016/08/10,19:20,0.429,0.250,0.444,0.402,0.374,0.205,0.175,south-southwest,0.8,No
2016/08/10,19:30,0.425,0.249,0.439,0.401,0.374,0.206,0.176,southwest,0.7,No
2016/08/10,19:40,0.424,0.250,0.440,0.398,0.370,0.204,0.173,southwest,1.1,No
2016/08/10,19:50,0.427,0.250,0.444,0.400,0.373,0.205,0.174,-,CALM,No
2016/08/10,20:00,0.427,0.250,0.441,0.403,0.374,0.206,0.176,southwest,1.3,No
2016/08/10,20:10,0.424,0.250,0.439,0.398,0.372,0.205,0.174,southwest,1.3,No
2016/08/10,20:20,0.427,0.249,0.442,0.400,0.371,0.205,0.174,southwest,1.0,No
2016/08/10,20:30,0.429,0.250,0.444,0.403,0.375,0.205,0.175,southwest,0.7,No
2016/08/10,20:40,0.426,0.250,0.440,0.399,0.372,0.205,0.175,west-southwest,1.3,No
2016/08/10,20:50,0.428,0.250,0.443,0.399,0.370,0.206,0.176,southwest,1.0,No
2016/08/10,21:00,0.430,0.249,0.443,0.402,0.376,0.206,0.176,-,CALM,No
2016/08/10,21:10,0.425,0.252,0.438,0.399,0.373,0.205,0.173,-,CALM,No
2016/08/10,21:20,0.427,0.250,0.440,0.399,0.369,0.205,0.176,-,CALM,No
2016/08/10,21:30,0.429,0.249,0.442,0.402,0.374,0.205,0.174,south-southwest,1.3,No
2016/08/10,21:40,0.425,0.251,0.440,0.399,0.373,0.205,0.174,southwest,1.0,No
2016/08/10,21:50,0.425,0.250,0.441,0.399,0.370,0.206,0.175,south-southwest,0.9,No
2016/08/10,22:00,0.429,0.251,0.444,0.402,0.373,0.205,0.175,south-southwest,0.8,No
2016/08/10,22:10,0.427,0.253,0.441,0.398,0.375,0.205,0.174,south-southwest,1.5,No
2016/08/10,22:20,0.425,0.251,0.440,0.398,0.372,0.206,0.175,south-southwest,1.0,No
2016/08/10,22:30,0.429,0.250,0.445,0.403,0.372,0.205,0.176,-,CALM,No
2016/08/10,22:40,0.427,0.251,0.439,0.401,0.375,0.205,0.174,southwest,1.1,No
2016/08/10,22:50,0.426,0.249,0.441,0.401,0.371,0.206,0.176,south,1.0,No
2016/08/10,23:00,0.429,0.250,0.445,0.402,0.373,0.206,0.174,south,0.7,No
2016/08/10,23:10,0.426,0.250,0.440,0.398,0.376,0.205,0.174,south-southwest,1.0,No
2016/08/10,23:20,0.426,0.249,0.439,0.401,0.371,0.206,0.176,southwest,1.1,No
2016/08/10,23:30,0.429,0.251,0.445,0.403,0.371,0.205,0.176,southwest,1.3,No
2016/08/10,23:40,0.426,0.251,0.441,0.400,0.375,0.206,0.176,southwest,0.8,No
2016/08/10,23:50,0.425,0.250,0.441,0.400,0.375,0.206,0.178,-,CALM,No
